Location: Cold Norton
(51.6667°N, 0.6667°E)
Time: 06:23:15
(UTC+00:00)

Cosmos 1340 Rocket - Pass Details

Date: 18 November 2025
Orbit: 486 x 519 km, 81.2° (Epoch: 10 December)

Event Time Altitude Azimuth Distance (km) Brightness Sun altitude
Rises 16:49:56 0° 215° (SW) 2,638 7.4 -7.3°
Reaches altitude 10° 16:52:14 10° 225° (SW) 1,752 6.6 -7.6°
Maximum altitude 16:55:44 33° 291° (WNW) 894 4.5 -8.1°
Drops below altitude 10° 16:59:15 10° 356° (N) 1,752 5.2 -8.7°
Sets 17:01:33 0° 6° (N) 2,638 6.0 -9.0°
